Location: McFarlands Corners
(41.4117°N, 81.3382°W)
Time: 13:08:51
(UTC+00:00)

Tiros 1 despin weight - Pass Details

Date: 21 February 2026
Orbit: 556 x 593 km, 48.2° (Epoch: 11 March)

Event Time Altitude Azimuth Distance (km) Brightness Sun altitude
Rises 23:41:42 0° 298° (WNW) 2,735 ? -7.3°
Reaches altitude 10° 23:43:59 10° 302° (WNW) 1,838 ? -7.7°
Maximum altitude 23:48:08 61° 23° (NNE) 632 ? -8.5°
Enters shadow 23:52:10 11° 104° (ESE) 1,794 ? -9.2°
Drops below altitude 10° 23:52:17 10° 105° (ESE) 1,836 - -9.3°
Sets 23:54:33 0° 108° (ESE) 2,733 - -9.7°
